Regional Weather Roundup
Issued by NWS Binghamton, NY

Home | Current Version | Previous Version | Text Only | Print | Product List | Glossary On
Versions: 1 2 3 4 5 6 7 8 9 10 11 12 13 14 15 16 17 18 19 20 21 22 23 24 25 26 27 28 29 30 31 32 33 34 35 36 37 38 39 40 41 42 43 44 45 46 47 48 49 50
660
ASUS41 KBGM 291210
RWRBGM

REGIONAL WEATHER ROUNDUP
NATIONAL WEATHER SERVICE BINGHAMTON NY
800 AM EDT FRI JUL 29 2016

Note: "fair" indicates few or no clouds below 12,000 feet with no
significant weather and/or obstructions to visibility.

* = Station(s) that does not report precipitation, such as rain,
snow, etc, also no thunder or fog.

NYZ009-015>018-022>025-036-037-044>046-055>057-062-291300
...Central New York...

CITY           SKY/WX    TMP DP  RH WIND       PRES   REMARKS
Binghamton     SUNNY     70  62  76 CALM      29.93R
Cortland       FAIR      66  63  88 CALM      29.94R
Dansville      SUNNY     67  61  81 VRB3      29.95R
Elmira         SUNNY     69  61  75 W5        29.92R
Ithaca         CLOUDY    67  66  97 NW5       29.94R FOG
Hamilton       MOSUNNY   72  66  83 CALM      29.93R
Hornell        SUNNY     64  61  88 CALM      29.99S
Monticello     CLOUDY    68  66  94 CALM      29.93R
Norwich        SUNNY     68  64  88 CALM      29.93S
Oneonta        PTSUNNY   66  66 100 CALM      29.94R FOG
Penn Yan       CLOUDY    71  65  81 NW5       29.94R
Rome           SUNNY     69  66  90 CALM      29.91R
Sidney         MOSUNNY   70  70 100 CALM      29.92R
Syracuse       MOSUNNY   70  67  90 CALM      29.90R
$$

PAZ038>040-043-044-047-048-072-291300
...Northeast Pennsylvania...

CITY           SKY/WX    TMP DP  RH WIND       PRES   REMARKS
Hazleton       CLOUDY    68  66  94 NW3       29.95S FOG
Scranton       CLOUDY    71  69  93 W6        29.90R FOG
$$
&&
KEY
WCI = Wind Chill Index
VSB = Visibility
HX  = Heat Index
$$




USA.gov is the U.S. government's official web portal to all federal, state and local government web resources and services.